Location: Le Rocchette
(44.3500°N, 7.8333°E)
Time: 14:52:38
(UTC+00:00)

Cosmos 1825 - Pass Details

Date: 17 November 2019
Orbit: 504 x 508 km, 82.5° (Epoch: 10 December)

Event Time Altitude Azimuth Distance (km) Brightness Sun altitude
Rises 05:50:49 0° 216° (SW) 2,593 5.6 -6.7°
Reaches altitude 10° 05:53:13 10° 230° (SW) 1,714 4.6 -6.3°
Maximum altitude 05:56:20 24° 286° (WNW) 1,071 3.2 -5.8°
Drops below altitude 10° 05:59:29 10° 343° (NNW) 1,727 4.5 -5.3°
Sets 06:01:54 0° 357° (N) 2,618 5.5 -4.9°
